Time,TemperatureF,DewpointF,PressureIn,WindDirection,WindDirectionDegrees,WindSpeedMPH,WindSpeedGustMPH,Humidity,HourlyPrecipIn,Conditions,Clouds,dailyrainin,SoftwareType,DateUTC
2013-02-14 00:02:00,35.0,30.0,29.82,SSW,205,4.0,7.0,82,0.00,,,0.00,,2013-02-14 05:02:00,
2013-02-14 00:11:00,35.0,30.0,29.82,SSW,205,4.0,7.0,82,0.00,,,0.00,,2013-02-14 05:11:00,
2013-02-14 00:21:00,35.0,30.0,29.82,SW,219,4.0,8.0,82,0.00,,,0.00,,2013-02-14 05:21:00,
2013-02-14 00:31:00,35.0,30.0,29.81,SSW,200,4.0,8.0,82,0.00,,,0.00,,2013-02-14 05:31:00,
2013-02-14 00:41:00,35.0,30.0,29.81,SSW,200,4.0,8.0,82,0.00,,,0.00,,2013-02-14 05:41:00,
2013-02-14 00:52:00,35.0,30.0,29.81,SW,221,4.0,7.0,82,0.00,,,0.00,,2013-02-14 05:52:00,
2013-02-14 01:02:00,35.0,30.0,29.81,SSW,204,4.0,7.0,82,0.00,,,0.00,,2013-02-14 06:02:00,
2013-02-14 01:11:00,35.0,30.0,29.81,South,184,4.0,6.0,83,0.00,,,0.00,,2013-02-14 06:11:00,
2013-02-14 01:21:00,35.0,30.0,29.81,South,184,4.0,6.0,83,0.00,,,0.00,,2013-02-14 06:21:00,
2013-02-14 01:31:00,34.0,29.0,29.81,South,187,3.0,5.0,83,0.00,,,0.00,,2013-02-14 06:31:00,
2013-02-14 01:41:00,34.0,29.0,29.81,South,187,3.0,5.0,83,0.00,,,0.00,,2013-02-14 06:41:00,
2013-02-14 01:52:00,34.0,30.0,29.81,SSW,197,3.0,7.0,84,0.00,,,0.00,,2013-02-14 06:52:00,
2013-02-14 02:01:00,34.0,30.0,29.81,SSW,205,4.0,8.0,84,0.00,,,0.00,,2013-02-14 07:01:00,
2013-02-14 02:11:00,34.0,30.0,29.81,SW,214,3.0,7.0,85,0.00,,,0.00,,2013-02-14 07:11:00,
2013-02-14 02:21:00,34.0,30.0,29.81,SW,214,3.0,7.0,85,0.00,,,0.00,,2013-02-14 07:21:00,
2013-02-14 02:31:00,34.0,30.0,29.81,South,172,3.0,7.0,86,0.00,,,0.00,,2013-02-14 07:31:00,
2013-02-14 02:41:00,34.0,30.0,29.81,South,172,3.0,7.0,86,0.00,,,0.00,,2013-02-14 07:41:00,
2013-02-14 02:51:00,34.0,30.0,29.81,SSW,212,2.0,8.0,86,0.00,,,0.00,,2013-02-14 07:51:00,
2013-02-14 03:01:00,34.0,30.0,29.81,SSW,212,2.0,8.0,86,0.00,,,0.00,,2013-02-14 08:01:00,
2013-02-14 03:11:00,34.0,30.0,29.81,SSW,212,2.0,8.0,86,0.00,,,0.00,,2013-02-14 08:11:00,
2013-02-14 03:21:00,34.0,31.0,29.81,SW,214,3.0,7.0,87,0.00,,,0.00,,2013-02-14 08:21:00,
2013-02-14 03:31:00,34.0,31.0,29.81,South,184,3.0,7.0,87,0.00,,,0.00,,2013-02-14 08:31:00,
2013-02-14 03:43:00,34.0,31.0,29.81,South,184,3.0,7.0,87,0.00,,,0.00,,2013-02-14 08:43:00,
2013-02-14 03:52:00,33.0,30.0,29.80,South,176,3.0,7.0,88,0.00,,,0.00,,2013-02-14 08:52:00,
2013-02-14 04:01:00,33.0,30.0,29.80,SSE,149,3.0,7.0,89,0.00,,,0.00,,2013-02-14 09:01:00,
2013-02-14 04:11:00,33.0,30.0,29.80,SSE,149,3.0,7.0,89,0.00,,,0.00,,2013-02-14 09:11:00,
2013-02-14 04:21:00,33.0,30.0,29.80,SSE,149,3.0,7.0,89,0.00,,,0.00,,2013-02-14 09:21:00,
2013-02-14 04:31:00,33.0,30.0,29.80,SE,138,3.0,8.0,90,0.00,,,0.00,,2013-02-14 09:31:00,
2013-02-14 04:41:00,33.0,30.0,29.80,SE,138,3.0,8.0,90,0.00,,,0.00,,2013-02-14 09:41:00,
2013-02-14 04:52:00,34.0,31.0,29.80,SSW,203,4.0,8.0,90,0.00,,,0.00,,2013-02-14 09:52:00,
2013-02-14 05:02:00,34.0,31.0,29.80,South,173,4.0,12.0,90,0.00,,,0.00,,2013-02-14 10:02:00,
2013-02-14 05:11:00,34.0,31.0,29.79,SSE,166,5.0,9.0,90,0.00,,,0.00,,2013-02-14 10:11:00,
2013-02-14 05:21:00,34.0,31.0,29.79,SSE,166,5.0,9.0,90,0.00,,,0.00,,2013-02-14 10:21:00,
2013-02-14 05:31:00,34.0,31.0,29.79,South,188,3.0,6.0,90,0.00,,,0.00,,2013-02-14 10:31:00,
2013-02-14 05:42:00,34.0,31.0,29.79,South,188,3.0,6.0,90,0.00,,,0.00,,2013-02-14 10:42:00,
2013-02-14 05:52:00,34.0,31.0,29.79,SSE,151,4.0,6.0,90,0.00,,,0.00,,2013-02-14 10:52:00,
2013-02-14 06:02:00,35.0,32.0,29.79,SSW,208,2.0,7.0,90,0.00,,,0.00,,2013-02-14 11:02:00,
2013-02-14 06:11:00,35.0,32.0,29.78,SSE,148,3.0,8.0,90,0.00,,,0.00,,2013-02-14 11:11:00,
2013-02-14 06:21:00,35.0,32.0,29.78,SSE,148,3.0,8.0,90,0.00,,,0.00,,2013-02-14 11:21:00,
2013-02-14 06:32:00,35.0,32.0,29.78,SSE,148,3.0,8.0,90,0.00,,,0.00,,2013-02-14 11:32:00,
2013-02-14 06:42:00,35.0,32.0,29.78,SSE,148,3.0,8.0,90,0.00,,,0.00,,2013-02-14 11:42:00,
2013-02-14 06:52:00,35.0,32.0,29.78,SSW,200,4.0,11.0,90,0.00,,,0.00,,2013-02-14 11:52:00,
2013-02-14 07:02:00,35.0,32.0,29.78,South,188,4.0,9.0,90,0.00,,,0.00,,2013-02-14 12:02:00,
2013-02-14 07:12:00,35.0,32.0,29.78,South,188,4.0,9.0,90,0.00,,,0.00,,2013-02-14 12:12:00,
2013-02-14 07:22:00,35.0,32.0,29.78,SSE,159,5.0,11.0,90,0.00,,,0.00,,2013-02-14 12:22:00,
2013-02-14 07:32:00,35.0,33.0,29.77,SSE,166,4.0,11.0,91,0.00,,,0.00,,2013-02-14 12:32:00,
2013-02-14 07:42:00,35.0,33.0,29.77,WSW,255,8.0,13.0,91,0.00,,,0.00,,2013-02-14 12:42:00,
2013-02-14 07:53:00,35.0,33.0,29.77,WSW,255,8.0,13.0,91,0.00,,,0.00,,2013-02-14 12:53:00,
2013-02-14 08:01:00,35.0,33.0,29.77,SSE,166,6.0,15.0,91,0.00,,,0.00,,2013-02-14 13:01:00,
2013-02-14 08:11:00,35.0,33.0,29.77,SSE,166,6.0,15.0,91,0.00,,,0.00,,2013-02-14 13:11:00,
2013-02-14 08:21:00,35.0,33.0,29.77,SSW,204,8.0,15.0,91,0.00,,,0.00,,2013-02-14 13:21:00,
2013-02-14 08:31:00,35.0,33.0,29.78,SSW,204,7.0,13.0,91,0.00,,,0.00,,2013-02-14 13:31:00,
2013-02-14 08:41:00,35.0,33.0,29.78,SSW,204,7.0,13.0,91,0.00,,,0.00,,2013-02-14 13:41:00,
2013-02-14 08:52:00,35.0,33.0,29.79,SSW,203,5.0,15.0,91,0.00,,,0.00,,2013-02-14 13:52:00,
2013-02-14 09:01:00,36.0,34.0,29.78,South,174,8.0,16.0,91,0.00,,,0.00,,2013-02-14 14:01:00,
2013-02-14 09:11:00,36.0,34.0,29.79,SSW,211,9.0,14.0,91,0.00,,,0.00,,2013-02-14 14:11:00,
2013-02-14 09:21:00,36.0,34.0,29.79,SSW,211,9.0,14.0,91,0.00,,,0.00,,2013-02-14 14:21:00,
2013-02-14 09:31:00,36.0,34.0,29.79,SSE,162,7.0,15.0,91,0.00,,,0.00,,2013-02-14 14:31:00,
2013-02-14 09:41:00,36.0,34.0,29.79,SSE,162,7.0,15.0,91,0.00,,,0.00,,2013-02-14 14:41:00,
2013-02-14 09:52:00,37.0,34.0,29.78,SW,219,7.0,15.0,90,0.00,,,0.00,,2013-02-14 14:52:00,
2013-02-14 10:01:00,37.0,34.0,29.78,South,177,7.0,16.0,89,0.00,,,0.00,,2013-02-14 15:01:00,
2013-02-14 10:11:00,38.0,34.0,29.78,South,179,8.0,13.0,87,0.00,,,0.00,,2013-02-14 15:11:00,
2013-02-14 10:21:00,38.0,34.0,29.78,South,179,8.0,13.0,87,0.00,,,0.00,,2013-02-14 15:21:00,
2013-02-14 10:31:00,38.0,34.0,29.78,South,179,8.0,13.0,87,0.00,,,0.00,,2013-02-14 15:31:00,
2013-02-14 10:41:00,38.0,34.0,29.78,South,179,8.0,13.0,87,0.00,,,0.00,,2013-02-14 15:41:00,
2013-02-14 10:52:00,39.0,35.0,29.79,WSW,240,9.0,20.0,85,0.00,,,0.00,,2013-02-14 15:52:00,
2013-02-14 11:01:00,39.0,35.0,29.79,WSW,240,9.0,20.0,85,0.00,,,0.00,,2013-02-14 16:01:00,
2013-02-14 11:11:00,40.0,36.0,29.80,WSW,257,5.0,15.0,84,0.00,,,0.00,,2013-02-14 16:11:00,
2013-02-14 11:21:00,40.0,36.0,29.80,WSW,257,5.0,15.0,84,0.00,,,0.00,,2013-02-14 16:21:00,
2013-02-14 11:32:00,40.0,35.0,29.80,South,180,4.0,16.0,83,0.00,,,0.00,,2013-02-14 16:32:00,
2013-02-14 11:41:00,40.0,35.0,29.80,South,180,4.0,16.0,83,0.00,,,0.00,,2013-02-14 16:41:00,
2013-02-14 11:51:00,40.0,35.0,29.80,WSW,253,8.0,18.0,81,0.00,,,0.00,,2013-02-14 16:51:00,
2013-02-14 12:01:00,42.0,36.0,29.80,SSW,197,9.0,17.0,79,0.00,,,0.00,,2013-02-14 17:01:00,
2013-02-14 12:11:00,42.0,35.0,29.80,SW,225,5.0,17.0,77,0.00,,,0.00,,2013-02-14 17:11:00,
2013-02-14 12:21:00,42.0,35.0,29.80,SW,225,5.0,17.0,77,0.00,,,0.00,,2013-02-14 17:21:00,
2013-02-14 12:32:00,42.0,35.0,29.80,SW,225,5.0,17.0,77,0.00,,,0.00,,2013-02-14 17:32:00,
2013-02-14 12:41:00,42.0,35.0,29.80,SW,225,5.0,17.0,77,0.00,,,0.00,,2013-02-14 17:41:00,
2013-02-14 12:52:00,43.0,36.0,29.80,West,274,10.0,18.0,75,0.00,,,0.00,,2013-02-14 17:52:00,
2013-02-14 13:01:00,44.0,36.0,29.80,SW,224,7.0,23.0,73,0.00,,,0.00,,2013-02-14 18:01:00,
2013-02-14 13:11:00,44.0,36.0,29.80,SW,224,7.0,23.0,73,0.00,,,0.00,,2013-02-14 18:11:00,
2013-02-14 13:23:00,44.0,36.0,29.80,WNW,294,9.0,15.0,73,0.00,,,0.00,,2013-02-14 18:23:00,
2013-02-14 13:32:00,43.0,35.0,29.80,WNW,294,7.0,17.0,74,0.00,,,0.00,,2013-02-14 18:32:00,
2013-02-14 13:41:00,43.0,35.0,29.80,WNW,294,7.0,17.0,74,0.00,,,0.00,,2013-02-14 18:41:00,
2013-02-14 13:52:00,42.0,35.0,29.81,SW,217,9.0,17.0,75,0.00,,,0.00,,2013-02-14 18:52:00,
2013-02-14 14:02:00,43.0,35.0,29.81,West,266,8.0,15.0,74,0.00,,,0.00,,2013-02-14 19:02:00,
2013-02-14 14:11:00,42.0,35.0,29.82,WNW,291,9.0,16.0,75,0.00,,,0.00,,2013-02-14 19:11:00,
2013-02-14 14:21:00,42.0,35.0,29.82,WNW,291,9.0,16.0,75,0.00,,,0.00,,2013-02-14 19:21:00,
2013-02-14 14:31:00,42.0,35.0,29.82,NW,306,6.0,17.0,76,0.00,,,0.00,,2013-02-14 19:31:00,
2013-02-14 14:41:00,42.0,35.0,29.82,NW,306,6.0,17.0,76,0.00,,,0.00,,2013-02-14 19:41:00,
2013-02-14 14:52:00,42.0,35.0,29.82,West,274,6.0,16.0,76,0.00,,,0.00,,2013-02-14 19:52:00,
2013-02-14 15:01:00,41.0,34.0,29.83,West,280,4.0,17.0,75,0.00,,,0.00,,2013-02-14 20:01:00,
2013-02-14 15:11:00,41.0,34.0,29.83,West,280,4.0,17.0,75,0.00,,,0.00,,2013-02-14 20:11:00,
2013-02-14 15:21:00,41.0,34.0,29.83,West,280,4.0,17.0,75,0.00,,,0.00,,2013-02-14 20:21:00,
2013-02-14 15:31:00,40.0,32.0,29.85,NW,304,8.0,17.0,74,0.00,,,0.00,,2013-02-14 20:31:00,
2013-02-14 15:41:00,40.0,32.0,29.85,NW,304,8.0,17.0,74,0.00,,,0.00,,2013-02-14 20:41:00,
2013-02-14 15:52:00,40.0,32.0,29.85,West,262,9.0,19.0,74,0.00,,,0.00,,2013-02-14 20:52:00,
2013-02-14 16:02:00,41.0,33.0,29.85,WSW,253,4.0,18.0,74,0.00,,,0.00,,2013-02-14 21:02:00,
2013-02-14 16:11:00,41.0,33.0,29.85,WSW,253,4.0,18.0,74,0.00,,,0.00,,2013-02-14 21:11:00,
2013-02-14 16:21:00,41.0,33.0,29.86,SSE,160,7.0,14.0,73,0.00,,,0.00,,2013-02-14 21:21:00,
2013-02-14 16:31:00,40.0,32.0,29.87,WNW,282,8.0,20.0,73,0.00,,,0.00,,2013-02-14 21:31:00,
2013-02-14 16:41:00,40.0,32.0,29.87,WNW,282,8.0,20.0,73,0.00,,,0.00,,2013-02-14 21:41:00,
2013-02-14 16:51:00,41.0,32.0,29.88,West,267,5.0,13.0,71,0.00,,,0.00,,2013-02-14 21:51:00,
2013-02-14 17:02:00,41.0,33.0,29.88,WNW,282,6.0,17.0,72,0.00,,,0.00,,2013-02-14 22:02:00,
2013-02-14 17:11:00,41.0,33.0,29.88,West,280,6.0,15.0,73,0.00,,,0.00,,2013-02-14 22:11:00,
2013-02-14 17:21:00,41.0,33.0,29.88,West,280,6.0,15.0,73,0.00,,,0.00,,2013-02-14 22:21:00,
2013-02-14 17:31:00,41.0,33.0,29.89,WSW,252,4.0,13.0,74,0.00,,,0.00,,2013-02-14 22:31:00,
2013-02-14 17:42:00,41.0,33.0,29.89,WSW,252,4.0,13.0,74,0.00,,,0.00,,2013-02-14 22:42:00,
2013-02-14 17:52:00,40.0,32.0,29.90,WSW,256,7.0,12.0,74,0.00,,,0.00,,2013-02-14 22:52:00,
2013-02-14 18:01:00,40.0,32.0,29.90,WSW,256,7.0,12.0,74,0.00,,,0.00,,2013-02-14 23:01:00,
2013-02-14 18:11:00,40.0,32.0,29.90,WSW,256,7.0,12.0,74,0.00,,,0.00,,2013-02-14 23:11:00,
2013-02-14 18:21:00,40.0,32.0,29.90,WSW,256,7.0,12.0,74,0.00,,,0.00,,2013-02-14 23:21:00,
2013-02-14 18:31:00,40.0,32.0,29.90,WSW,256,7.0,12.0,74,0.00,,,0.00,,2013-02-14 23:31:00,
2013-02-14 19:22:00,39.0,31.0,29.96,WNW,285,5.0,12.0,74,0.00,,,0.00,,2013-02-15 00:22:00,
2013-02-14 19:32:00,39.0,31.0,29.96,WSW,238,6.0,12.0,74,0.00,,,0.00,,2013-02-15 00:32:00,
2013-02-14 19:42:00,39.0,31.0,29.96,WSW,238,6.0,12.0,74,0.00,,,0.00,,2013-02-15 00:42:00,
2013-02-14 19:52:00,39.0,32.0,29.97,NW,309,4.0,12.0,77,0.00,,,0.00,,2013-02-15 00:52:00,
2013-02-14 20:02:00,39.0,32.0,29.97,NW,309,4.0,12.0,77,0.00,,,0.00,,2013-02-15 01:02:00,
2013-02-14 20:11:00,39.0,32.0,29.97,NW,309,4.0,12.0,77,0.00,,,0.00,,2013-02-15 01:11:00,
2013-02-14 20:21:00,39.0,32.0,29.98,West,264,5.0,12.0,75,0.00,,,0.00,,2013-02-15 01:21:00,
2013-02-14 20:31:00,39.0,32.0,29.98,North,356,4.0,11.0,75,0.00,,,0.00,,2013-02-15 01:31:00,
2013-02-14 20:42:00,39.0,32.0,29.98,North,356,4.0,11.0,75,0.00,,,0.00,,2013-02-15 01:42:00,
2013-02-14 20:52:00,39.0,32.0,29.98,North,356,4.0,11.0,75,0.00,,,0.00,,2013-02-15 01:52:00,
2013-02-14 21:01:00,39.0,31.0,29.99,West,266,6.0,12.0,72,0.00,,,0.00,,2013-02-15 02:01:00,
2013-02-14 21:11:00,38.0,30.0,29.99,West,277,5.0,13.0,73,0.00,,,0.00,,2013-02-15 02:11:00,
2013-02-14 21:21:00,38.0,30.0,29.99,West,277,5.0,13.0,73,0.00,,,0.00,,2013-02-15 02:21:00,
2013-02-14 21:31:00,38.0,30.0,29.99,West,281,4.0,11.0,73,0.00,,,0.00,,2013-02-15 02:31:00,
2013-02-14 21:41:00,38.0,30.0,29.99,West,281,4.0,11.0,73,0.00,,,0.00,,2013-02-15 02:41:00,
2013-02-14 21:52:00,38.0,30.0,29.99,WNW,294,4.0,10.0,74,0.00,,,0.00,,2013-02-15 02:52:00,
2013-02-14 22:02:00,37.0,30.0,29.99,WNW,300,5.0,9.0,75,0.00,,,0.00,,2013-02-15 03:02:00,
2013-02-14 22:11:00,37.0,30.0,30.00,NW,314,5.0,9.0,77,0.00,,,0.00,,2013-02-15 03:11:00,
2013-02-14 22:22:00,37.0,30.0,30.00,NW,314,5.0,9.0,77,0.00,,,0.00,,2013-02-15 03:22:00,
2013-02-14 22:32:00,36.0,30.0,30.00,West,264,2.0,8.0,78,0.00,,,0.00,,2013-02-15 03:32:00,
2013-02-14 22:42:00,36.0,30.0,30.00,West,264,2.0,8.0,78,0.00,,,0.00,,2013-02-15 03:42:00,
2013-02-14 22:52:00,35.0,29.0,29.99,WSW,255,1.0,4.0,80,0.00,,,0.00,,2013-02-15 03:52:00,
2013-02-14 23:01:00,35.0,30.0,29.98,SW,234,0.0,2.0,81,0.00,,,0.00,,2013-02-15 04:01:00,
2013-02-14 23:11:00,35.0,30.0,29.98,SW,234,0.0,2.0,81,0.00,,,0.00,,2013-02-15 04:11:00,
2013-02-14 23:21:00,33.0,28.0,29.99,SW,235,1.0,1.0,83,0.00,,,0.00,,2013-02-15 04:21:00,
2013-02-14 23:31:00,33.0,29.0,29.99,SW,217,1.0,2.0,85,0.00,,,0.00,,2013-02-15 04:31:00,
2013-02-14 23:42:00,33.0,29.0,29.99,SW,217,1.0,2.0,85,0.00,,,0.00,,2013-02-15 04:42:00,
2013-02-14 23:52:00,33.0,29.0,29.99,SW,215,0.0,3.0,85,0.00,,,0.00,,2013-02-15 04:52:00,